Retour au catalogue

CZ-6A DEB

ActifPO
NORAD 61462·DEBRIS·🇨🇳 China

Lancé Aug 6, 2024 depuis Taiyuan Satellite Launch Center

Loading…

Prochains Passages (prochaines 24 heures)

TLE

FraisSource: Space-Track

Époque: Sep 12, 2026, 12:06 UTC

1 61462U 24140ZU  26255.50429289  .00002231  00000-0  83842-3 0  9995
2 61462  89.1123 274.3915 0074053 299.8144  59.5703 14.29791898104071

Suivez CZ-6A DEB en temps réel avec AllMySat

Download on the App Store